Regional Weather Roundup
Issued by NWS

Home | Current Version | Previous Version | Text Only | Print | Product List | Glossary On
Versions: 1 2 3 4 5 6 7 8 9 10 11 12 13 14 15 16 17 18 19 20 21 22 23 24 25 26 27 28 29 30 31 32 33 34 35 36 37 38 39 40 41 42 43 44 45 46 47 48 49 50
000
ASUS46 KSTO 200515
RWRCA

NORTHERN AND CENTRAL CA REGIONAL WEATHER ROUNDUP
NATIONAL WEATHER SERVICE SACRAMENTO CA
1000 PM PDT TUE SEP 19 2017

NOTE: FAIR INDICATES FEW OR NO CLOUDS BELOW 12,000 FEET WITH NO
SIGNIFICANT WEATHER AND/OR OBSTRUCTIONS TO VISIBILITY.

CAZ001-003-200600-
NORTHWEST AREA

CITY           SKY/WX    TMP DP  RH WIND       PRES   REMARKS
CRESCENT CITY  LGT RAIN  55  55 100 S17       29.93F FOG
UKIAH          CLOUDY    61  43  51 N9        30.03R
$$

CAZ006-505>513-200600-
BAY AREA

CITY           SKY/WX    TMP DP  RH WIND       PRES   REMARKS
SANTA ROSA     CLEAR     64  47  53 N7        29.98R
SAN RAFAEL     N/A       63  MM  MM MISG
NAPA           CLEAR     59  51  75 SE6       29.96R
CONCORD        CLEAR     67  50  54 SW3       29.96S
OAKLAND CITY   N/A      MM  MM  MM MISG
OAKLAND        CLEAR     63  52  67 CALM      29.98R
SAN FRAN CITY  N/A       62  MM  69 MISG
SAN FRAN ARPT  CLEAR     61  53  75 W17       29.98S
LIVERMORE      CLEAR     60  52  74 W6        29.97S
HAYWARD        CLEAR     64  53  67 W5        29.98R
REDWOOD CITY   N/A       63  MM  65 MISG
MOFFETT ARPT   CLEAR     63  50  62 NW7       29.99S
SAN JOSE ARPT  CLEAR     63  51  65 NW8       29.98F
$$
CAZ034-037-514>518-200600-
CENTRAL COAST

CITY           SKY/WX    TMP DP  RH WIND       PRES   REMARKS
WATSONVILLE    CLEAR     61  56  83 NW3       29.98R
SALINAS        CLEAR     62  51  67 SW14      29.98R
MONTEREY       CLEAR     61  52  72 CALM      30.00S
SAN LUIS OBISP CLEAR     60  53  77 W7        29.93R
SANTA MARIA    CLEAR     57  54  89 CALM      29.93R
$$
CAZ015-016-200600-
NORTHERN SACRAMENTO VALLEY

CITY           SKY/WX    TMP DP  RH WIND       PRES   REMARKS
REDDING        CLOUDY    67  45  45 W6        29.93S
RED BLUFF      CLOUDY    70  45  40 CALM      29.94S
$$
CAZ016>018-200600-
SOUTHERN SACRAMENTO VALLEY

CITY           SKY/WX    TMP DP  RH WIND       PRES   REMARKS
AUBURN         CLEAR     55  55 100 CALM      29.98S
BEALE AFB      CLEAR     62  42  48 S3        29.92S
LINCOLN        FAIR      61  39  44 CALM      29.93S
MARYSVILLE     CLEAR     62  48  60 CALM      29.94S
SAC INTL ARPT  CLEAR     63  49  60 SW7       29.93S
MATHER AIRPORT CLEAR     66  46  48 SW8       29.93S
DOWNTOWN SAC   N/A       67  MM  MM MISG
SAC EXEC ARPT  CLEAR     64  52  64 SW7       29.94S
VACAVILLE      CLEAR     63  48  58 CALM      29.95S
TRAVIS AFB     CLEAR     59  49  69 SW3       29.93R
$$
CAZ019>021-200600-
SAN JOAQUIN VALLEY

CITY           SKY/WX    TMP DP  RH WIND       PRES   REMARKS
STOCKTON       CLEAR     66  52  60 W10       29.94S
MODESTO        CLEAR     69  50  50 NW12      29.92S
MERCED         CLEAR     66  42  41 NW7       29.92R
LEMOORE        CLEAR     66  41  40 W8        29.93R
FRESNO         CLEAR     68  43  40 NW7       29.92S
HANFORD        CLEAR     66  44  45 NW8       29.93R
PORTERVILLE      N/A     63  47  55 CALM      29.94R
BAKERSFIELD    CLEAR     70  44  39 N3        29.93R
$$
CAZ011-012-071-200600-
NORTHERN MOUNTAINS

CITY           SKY/WX    TMP DP  RH WIND       PRES   REMARKS
YREKA          CLOUDY    56  41  57 S3        29.93F
MOUNT SHASTA   CLOUDY    54  41  61 CALM      29.96S
ALTURAS        CLOUDY    52  35  52 W6        29.96F
$$
CAZ011-012-071-200600-
SIERRA NEVADA MTNS

CITY           SKY/WX    TMP DP  RH WIND       PRES   REMARKS
BLUE CANYON    CLEAR     48  36  63 NE3       30.09S
TRUCKEE        CLEAR     37  28  70 SE3       30.09R
TAHOE VLY ARPT CLEAR     49  31  49 SW5       30.07R
MAMMOTH LAKES  FAIR      53  31  43 W7        30.09R
$$



USA.gov is the U.S. government's official web portal to all federal, state and local government web resources and services.